[[{"header":{"parameterUnit":"m.s-1","parameterCategory":1,"la1":30.2991,"la2":30.254,"lo1":-89.0895,"lo2":-89.0444,"dy":0.0017,"dx":0.0017,"nx":28,"ny":28,"refTime":"2024-06-06T09:00:00:Z","depth":0,"parameterNumber":2,"parameterNumberName":"U-component_of_WINDS"},"data":[0,0,0,0,0,0,0,0,0,0,0,0,0,0,0,0,0,0,0,0,0,0,0,0,0,0,0,0,0,0,0,0,0,0,0,0,0,0,0,0,0,0,0,0,0,0,0,0,0,0,0,0,0,0,0,0,0,0,1.619,1.619,0,1.6241,1.6241,1.6242,1.619,1.6188,1.6186,1.6184,1.6237,1.624,1.6243,0,0,0,0,0,0,0,0,0,0,0,0,0,1.6048,1.6051,1.619,1.619,1.6191,1.6241,1.6241,1.6242,1.619,1.6188,1.6185,1.6183,1.6236,1.624,1.6244,0,0,0,0,0,0,0,0,0,0,0,0,0,1.6105,1.6052,1.619,1.6171,1.617,1.6241,1.6241,1.6242,1.6191,1.6188,1.6185,1.6182,1.6234,1.6239,1.6244,1.6336,0,0,1.6259,1.6261,0,0,0,0,0,0,0,0,1.6102,1.6111,1.6173,1.6172,1.6171,1.6206,1.6211,1.6274,1.6192,1.6183,1.6184,1.618,1.6229,1.6234,1.625,1.6338,1.634,1.626,1.6263,1.6265,1.6266,0,0,0,0,0,0,0,1.6098,1.6108,1.621,1.6174,1.6173,1.616,1.6165,1.6222,1.6222,1.6183,1.618,1.6187,1.6228,1.6246,1.6251,1.6341,1.626,1.6264,1.6267,1.6269,1.6506,1.6509,0,0,0,0,0,0,1.6096,1.6105,1.6208,1.6211,1.6129,1.6166,1.6171,1.6198,1.6222,1.6222,1.6189,1.6184,1.6239,1.6246,1.6253,1.6361,1.6265,1.6269,1.6272,1.6502,1.6506,1.651,0,0,0,0,0,0,1.6093,1.6106,1.6206,1.6157,1.6169,1.6171,1.6202,1.62,1.6218,1.6226,1.6226,1.6207,1.6237,1.6246,1.6315,1.6362,1.6272,1.6276,1.6498,1.6504,1.6508,1.6577,0,0,0,0,0,0,1.609,1.6105,1.614,1.6158,1.6172,1.6268,1.6205,1.6204,1.6227,1.6221,1.6243,1.6244,1.6235,1.6308,1.632,1.6367,1.628,1.6494,1.6501,1.6507,1.6571,1.6584,1.6595,0,0,0,0,0,1.6085,1.6158,1.6142,1.6155,1.6215,1.627,1.6278,1.6266,1.6231,1.6266,1.6271,1.6243,1.6355,1.6316,1.6329,1.6378,1.6491,1.6499,1.6506,1.6565,1.6582,1.6595,0,0,0,0,0,0,1.6144,1.616,1.6142,1.6223,1.6246,1.6261,1.6305,1.6284,1.6317,1.631,1.6294,1.63,1.6373,1.6383,1.6338,1.6467,1.6417,1.6428,1.6458,1.6473,1.6485,1.6481,1.6284,0,0,0,0,0,1.6167,1.621,1.6221,1.6292,1.6304,1.6303,1.6326,1.6316,1.6338,1.6348,1.6358,1.6381,1.6421,1.6448,1.6486,1.6573,1.6576,1.6613,1.6625,1.6635,1.6644,1.669,1.6706,1.6534,1.6534,1.6534,0,0,1.6214,1.6228,1.6256,1.6304,1.632,1.6366,1.6311,1.6361,1.6395,1.6355,1.6421,1.6429,1.6454,1.6532,1.6567,1.6543,1.6692,1.6645,1.6653,1.6656,1.6699,1.6715,1.673,1.6539,1.6539,1.6538,0,0,1.6323,1.6338,1.6398,1.6415,1.644,1.6439,1.6453,1.6472,1.6476,1.6542,1.6513,1.6553,1.6623,1.6642,1.666,1.6777,1.6752,1.679,1.6853,1.6898,1.6911,1.6923,1.6964,1.6978,1.6799,1.6799,1.6799,0,1.6378,1.6444,1.6431,1.6483,1.6505,1.6472,1.6532,1.655,1.6586,1.6602,1.6574,1.6661,1.6676,1.6757,1.6786,1.6803,1.6818,1.6786,1.691,1.6922,1.6933,1.6971,1.6987,1.6803,1.6803,1.6802,1.6802,0,1.6511,1.6557,1.6603,1.6638,1.6666,1.6722,1.6717,1.6746,1.6734,1.6735,1.6802,1.6819,1.6859,1.6878,1.6866,1.6958,1.6942,1.6913,1.6862,1.6954,1.699,1.7004,1.6809,1.6808,1.6806,1.6805,0,0,1.6657,1.6685,1.6701,1.6717,1.6742,1.6778,1.6833,1.6872,1.6897,1.6924,1.6969,1.7029,1.7002,1.7024,1.7014,1.7054,1.7143,1.7019,1.702,1.7041,1.7245,1.7265,1.7283,1.7128,1.7131,1.7133,1.7242,0,1.6765,1.6859,1.6849,1.6939,1.6982,1.6951,1.6999,1.702,1.7024,1.706,1.7064,1.7107,1.7069,1.7081,1.7119,1.7124,1.7184,1.7117,1.7169,1.7171,1.7162,1.7301,1.7324,1.7426,1.7256,1.7258,1.726,0,1.6903,1.6934,1.7028,1.7047,1.7065,1.7108,1.7142,1.7178,1.7202,1.7201,1.7226,1.7209,1.7264,1.7213,1.7289,1.7243,1.7264,1.727,1.7274,1.7277,1.722,1.7307,1.7458,1.7473,1.7282,1.728,1.7279,0,1.6998,1.7064,1.7129,1.7143,1.7167,1.7198,1.7209,1.723,1.7254,1.7285,1.73,1.7337,1.7357,1.7386,1.738,1.7344,1.7457,1.7406,1.7457,1.7457,1.7481,1.7479,1.7636,1.7497,1.7497,1.7497,1.7497,0,1.7119,1.7178,1.7172,1.7211,1.7276,1.7264,1.7329,1.7336,1.7355,1.7395,1.7372,1.7411,1.7401,1.7439,1.7435,1.7497,1.7507,1.7508,1.7506,1.7509,1.7509,1.7522,1.7514,1.7501,1.75,1.7499,1.7499,0,1.7236,1.7234,1.7303,1.732,1.7326,1.7372,1.7387,1.7424,1.7426,1.7478,1.749,1.7493,1.7536,1.7533,1.7583,1.758,1.7657,1.7647,1.7649,1.7646,1.7698,1.7692,1.7867,1.7889,1.7737,1.7739,1.774,0,1.7312,1.7356,1.7378,1.7404,1.7417,1.7459,1.7483,1.7474,1.75,1.753,1.7564,1.7606,1.7638,1.771,1.7716,1.7754,1.7744,1.7803,1.775,1.7752,1.7744,1.774,1.7744,1.7813,1.7815,1.7816,1.7817,0,1.7447,1.7444,1.748,1.7516,1.7546,1.7574,1.7599,1.7622,1.7615,1.7646,1.769,1.7716,1.7767,1.7808,1.7844,1.7856,1.7836,1.7834,1.7848,1.7851,1.7849,1.785,1.7676,1.783,1.7828,1.7828,1.7827,1.7826,1.7545,1.7583,1.7604,1.7645,1.7663,1.7687,1.7723,1.773,1.7767,1.7807,1.7799,1.7849,1.7871,1.7918,1.7933,1.7972,1.7951,1.7971,1.7976,1.7981,1.7986,1.7845,1.7979,1.7978,1.7978,1.7978,1.7978,0,1.7678,1.769,1.7728,1.7764,1.7796,1.7775,1.7802,1.783,1.7874,1.7897,1.793,1.7981,1.8021,1.8031,1.807,1.8099,1.809,1.8109,1.8106,1.8109,1.8003,1.7987,1.8115,1.8115,1.8115,1.8115,1.8115,1.8115,1.7751,1.7813,1.7813,1.7884,1.7896,1.7944,1.7961,1.7984,1.8001,1.8059,1.8093,1.8099,1.8117,1.8157,1.8192,1.8194,1.8209,1.8232,1.823,1.813,1.8116,1.8103,1.8088,1.8235,1.8235,1.8332,1.8333,1.8334]},{"header":{"parameterUnit":"m.s-1","parameterCategory":1,"la1":30.2991,"la2":30.254,"lo1":-89.0895,"lo2":-89.0444,"dy":0.0017,"dx":0.0017,"nx":28,"ny":28,"refTime":"2024-06-06T09:00:00:Z","depth":0,"parameterNumber":3,"parameterNumberName":"V-component_of_WINDS"},"data":[0,0,0,0,0,0,0,0,0,0,0,0,0,0,0,0,0,0,0,0,0,0,0,0,0,0,0,0,0,0,0,0,0,0,0,0,0,0,0,0,0,0,0,0,0,0,0,0,0,0,0,0,0,0,0,0,0,0,1.5453,1.5454,0,1.555,1.5551,1.5552,1.5536,1.5535,1.5533,1.5531,1.5628,1.5632,1.5636,0,0,0,0,0,0,0,0,0,0,0,0,0,1.525,1.5254,1.5453,1.5454,1.5455,1.555,1.5551,1.5553,1.5537,1.5535,1.5532,1.5531,1.5627,1.5631,1.5636,0,0,0,0,0,0,0,0,0,0,0,0,0,1.5342,1.5255,1.5453,1.5459,1.546,1.555,1.5551,1.5553,1.5537,1.5534,1.5532,1.553,1.5625,1.5631,1.5637,1.5726,0,0,1.5656,1.5659,0,0,0,0,0,0,0,0,1.5336,1.5349,1.5457,1.5458,1.546,1.5529,1.5515,1.5611,1.5538,1.5508,1.5531,1.5528,1.5597,1.5605,1.5629,1.573,1.5734,1.5657,1.566,1.5663,1.5665,0,0,0,0,0,0,0,1.533,1.5345,1.5491,1.5458,1.546,1.5456,1.5466,1.5533,1.5565,1.551,1.5509,1.5521,1.5597,1.5623,1.5631,1.5736,1.5656,1.5662,1.5666,1.5668,1.5915,1.5917,0,0,0,0,0,0,1.5322,1.534,1.5488,1.5494,1.5391,1.5461,1.5473,1.5509,1.5564,1.557,1.5523,1.552,1.5613,1.5624,1.5634,1.5742,1.5663,1.5669,1.5672,1.5912,1.5915,1.5918,0,0,0,0,0,0,1.5318,1.5336,1.5484,1.5417,1.5435,1.5467,1.5508,1.5512,1.5538,1.5574,1.5579,1.5544,1.5612,1.5625,1.5703,1.5745,1.5672,1.5677,1.5909,1.5913,1.5917,1.5959,0,0,0,0,0,0,1.5312,1.5334,1.5369,1.5418,1.5439,1.5553,1.5511,1.5516,1.5549,1.5546,1.5595,1.5601,1.5611,1.5694,1.571,1.5753,1.5682,1.5905,1.5911,1.5916,1.5954,1.5964,1.5972,0,0,0,0,0,1.5305,1.5376,1.5371,1.5389,1.5483,1.5555,1.5568,1.5579,1.5553,1.5588,1.5611,1.5599,1.5738,1.5702,1.5719,1.5765,1.5902,1.5909,1.5915,1.595,1.5962,1.5972,0,0,0,0,0,0,1.5331,1.5383,1.5378,1.5467,1.5507,1.5553,1.5597,1.5592,1.5639,1.5634,1.5645,1.5656,1.5735,1.5757,1.5717,1.5853,1.5816,1.5826,1.5837,1.5849,1.5858,1.5851,1.5687,0,0,0,0,0,1.5347,1.5403,1.5444,1.5519,1.5539,1.5565,1.5597,1.5602,1.5644,1.566,1.5689,1.5729,1.5781,1.5816,1.5866,1.5956,1.5967,1.5996,1.6005,1.6013,1.6022,1.6071,1.6085,1.5939,1.5939,1.5939,0,0,1.5381,1.5416,1.545,1.5525,1.5557,1.5613,1.5579,1.564,1.5682,1.5669,1.5745,1.5767,1.5812,1.5897,1.5935,1.5918,1.6064,1.6021,1.6027,1.6032,1.6079,1.6093,1.6105,1.5944,1.5943,1.5942,0,0,1.5472,1.5504,1.557,1.5603,1.5652,1.5668,1.5684,1.573,1.5745,1.5822,1.5813,1.5862,1.5952,1.5985,1.6014,1.6116,1.6108,1.6132,1.6182,1.623,1.6241,1.6251,1.6289,1.6302,1.6141,1.6141,1.6141,0,1.5508,1.5594,1.5605,1.5667,1.57,1.5692,1.5758,1.5789,1.5851,1.5874,1.5853,1.5967,1.5996,1.6088,1.6113,1.6136,1.6154,1.6127,1.6239,1.6249,1.6259,1.6294,1.6308,1.6143,1.6143,1.6143,1.6143,0,1.5636,1.5695,1.5742,1.5804,1.5842,1.5906,1.5926,1.5962,1.5964,1.5982,1.606,1.6095,1.6153,1.6174,1.6176,1.6267,1.6255,1.6236,1.6199,1.6275,1.6309,1.6323,1.6147,1.6146,1.6146,1.6145,0,0,1.5747,1.5814,1.5831,1.5859,1.5912,1.5958,1.602,1.6078,1.6109,1.6152,1.6205,1.6282,1.6265,1.6297,1.6302,1.6344,1.6424,1.6321,1.6322,1.634,1.6527,1.6541,1.6557,1.6418,1.642,1.6423,1.6523,0,1.5844,1.5957,1.5968,1.6069,1.6124,1.6116,1.6171,1.6209,1.6227,1.6275,1.6294,1.6349,1.6323,1.6342,1.6383,1.6406,1.6462,1.6398,1.6467,1.647,1.6458,1.6575,1.659,1.6684,1.6536,1.6539,1.654,0,1.5972,1.602,1.6127,1.6172,1.6195,1.6245,1.6298,1.6345,1.6387,1.6397,1.6433,1.6432,1.6496,1.6456,1.6544,1.6501,1.6529,1.6544,1.6548,1.6556,1.6511,1.6587,1.6714,1.6728,1.6561,1.6559,1.6558,0,1.6044,1.6135,1.621,1.6234,1.6289,1.6324,1.6348,1.6388,1.6422,1.6468,1.649,1.6542,1.6571,1.6611,1.6624,1.6593,1.6711,1.6672,1.6722,1.6722,1.6748,1.6747,1.6883,1.6764,1.6764,1.6764,1.6764,0,1.6152,1.6217,1.6243,1.629,1.6363,1.6375,1.6446,1.6468,1.6504,1.6554,1.655,1.6597,1.6611,1.666,1.667,1.6741,1.6754,1.6764,1.6766,1.6765,1.6764,1.6785,1.6779,1.6768,1.6767,1.6766,1.6765,0,1.6245,1.6265,1.6347,1.6392,1.6405,1.6457,1.6495,1.654,1.6557,1.662,1.6635,1.6662,1.672,1.6736,1.6805,1.6812,1.6896,1.6892,1.6883,1.6883,1.6932,1.6928,1.7088,1.7109,1.6975,1.6977,1.6978,0,1.6313,1.6364,1.6414,1.6448,1.6474,1.6528,1.6563,1.6576,1.6612,1.6664,1.6702,1.6759,1.6805,1.6897,1.6922,1.6974,1.6972,1.7024,1.698,1.6977,1.6974,1.6972,1.6977,1.7033,1.7034,1.7036,1.7036,0,1.6432,1.644,1.649,1.6545,1.6587,1.663,1.6671,1.6699,1.6717,1.6758,1.6817,1.6853,1.6924,1.698,1.7033,1.7057,1.705,1.705,1.7065,1.7065,1.7058,1.7064,1.6907,1.7047,1.7046,1.7045,1.7044,1.7044,1.6516,1.6561,1.6604,1.666,1.6693,1.6732,1.6776,1.6799,1.6849,1.6909,1.6912,1.6977,1.7017,1.7087,1.7114,1.7163,1.7148,1.7169,1.7174,1.7179,1.7184,1.7049,1.7173,1.7172,1.7172,1.7172,1.7172,0,1.6636,1.6663,1.6715,1.6774,1.6818,1.6808,1.6853,1.6891,1.6948,1.6987,1.7033,1.7101,1.7155,1.7184,1.7239,1.7273,1.7271,1.7287,1.7285,1.7291,1.7194,1.7177,1.7287,1.7287,1.7287,1.7287,1.7287,1.7287,1.6703,1.6779,1.6792,1.6883,1.6909,1.6973,1.7,1.7036,1.7067,1.7143,1.7189,1.7208,1.7243,1.7299,1.7349,1.7356,1.7376,1.7394,1.7399,1.7309,1.7297,1.7286,1.727,1.7398,1.7398,1.7492,1.7493,1.7493]}]]